{"data":{"norad_id":58786,"epoch":"2026-05-25T00:17:58.296192Z","epoch_age_seconds":84126,"freshness":"FRESH","line1":"1 58786U 24011X   26145.01248028  .00000727  00000+0  36686-4 0  9993","line2":"2 58786  53.1617  17.1895 0001172  92.5205 267.5930 15.30192992131989","mean_motion":15.30192992,"eccentricity":0.0001172,"inclination_deg":53.1617,"raan_deg":17.1895,"arg_perigee_deg":92.5205,"mean_anomaly_deg":267.593,"bstar":3.6686e-5,"rev_number":13198,"period_min":94.105776691467,"perigee_km":474.43277880907,"apogee_km":476.03920943889,"semimajor_km":6853.372994124,"source":"CELESTRAK","updated_at":"2026-05-25T13:38:18.748098Z"}}